, MT

(GMT )
West Yellowstone

Weather History for KWYS - June, 2014

Change the Weather History Date:

Tuesday, June 17, 2014

  Actual Average Record
Temperature  
Mean Temperature 42 °F -  
Max Temperature 46 °F 68 °F 75 °F (2013)
Min Temperature 37 °F 36 °F 28 °F (2016)
Degree Days  
Heating Degree Days 24    
Moisture  
Dew Point 35 °F    
Average Humidity 85    
Maximum Humidity 100    
Minimum Humidity 57    
Precipitation  
Precipitation 0.04 in - - ()
Sea Level Pressure  
Sea Level Pressure 29.89 in    
Wind  
Wind Speed 5 mph (SW)    
Max Wind Speed 15 mph    
Max Gust Speed 23 mph    
Visibility 9 miles    
Events Rain    
Averages and records for this station are not official NWS values.
T = Trace of Precipitation, MM = Missing Value Source: NWS Daily Summary

Daily Weather History Graph

Daily Weather History Graph

Search for Another Location

Airport or City:

Trip Planner

Search our weather history database for the weather conditions in past years. The results will help you decide how hot, cold, wet, or windy it might be!

Date:

Astronomy

Jun. 17, 2014 Rise Set
Actual Time 5:38 AM MDT 9:12 PM MDT
Civil Twilight 5:01 AM MDT 9:49 PM MDT
Nautical Twilight 4:12 AM MDT 10:38 PM MDT
Astronomical Twilight 3:08 AM MDT 11:43 PM MDT
Moon No Moon Rise 11:08 AM MDT (6/17)
Length of Visible Light 16h 48m
Length of Day
15h 34m
Waning Gibbous, 73% of the Moon is Illuminated
Jun 17
Waning Gibbous
Jun 19
Last Quarter
Jun 27
New
Jul 5
First Quarter
Jul 12
Full

Hourly Weather History & Observations

Time (MDT) Temp. Windchill Dew Point Humidity Pressure Visibility Wind Dir Wind Speed Gust Speed Precip Events Conditions
12:10 AM 37.4 °F - 37.4 °F 100% 29.82 in 10.0 mi Calm Calm - N/A   Overcast
12:30 AM 37.4 °F 34.9 °F 37.4 °F 100% 29.83 in 10.0 mi SW 3.5 mph - N/A   Overcast
12:50 AM 37.4 °F - 37.4 °F 100% 29.81 in 10.0 mi Calm Calm - N/A   Overcast
1:10 AM 37.4 °F 34.9 °F 37.4 °F 100% 29.81 in 5.0 mi WNW 3.5 mph - N/A Rain Light Rain
1:30 AM 37.4 °F 33.8 °F 37.4 °F 100% 29.80 in 10.0 mi WNW 4.6 mph - N/A   Overcast
1:50 AM 37.4 °F - 37.4 °F 100% 29.80 in 8.0 mi Calm Calm - N/A   Mostly Cloudy
2:10 AM 37.4 °F - 37.4 °F 100% 29.79 in 10.0 mi Calm Calm - N/A   Mostly Cloudy
2:30 AM 37.4 °F 34.9 °F 37.4 °F 100% 29.79 in 10.0 mi NNE 3.5 mph - N/A   Overcast
2:50 AM 37.4 °F - 37.4 °F 100% 29.79 in 10.0 mi Calm Calm - N/A   Overcast
3:10 AM 37.4 °F - 37.4 °F 100% 29.79 in 10.0 mi Calm Calm - N/A   Overcast
3:30 AM 37.4 °F - 37.4 °F 100% 29.80 in 3.0 mi Calm Calm - 0.02 in Rain Light Rain
3:50 AM 37.4 °F - 37.4 °F 100% 29.80 in 7.0 mi Calm Calm - 0.02 in Rain Light Rain
4:10 AM 37.4 °F - 37.4 °F 100% 29.81 in 9.0 mi Calm Calm - N/A   Overcast
4:30 AM 39.2 °F 34.2 °F 37.4 °F 93% 29.81 in 7.0 mi SSE 6.9 mph - N/A   Overcast
4:50 AM 37.4 °F 32.8 °F 37.4 °F 100% 29.81 in 9.0 mi SW 5.8 mph - N/A   Overcast
5:10 AM 37.4 °F 33.8 °F 35.6 °F 93% 29.82 in 10.0 mi SSW 4.6 mph - N/A   Overcast
5:30 AM 37.4 °F 34.9 °F 35.6 °F 93% 29.82 in 10.0 mi South 3.5 mph - N/A   Mostly Cloudy
5:50 AM 37.4 °F - 35.6 °F 93% 29.82 in 10.0 mi Calm Calm - N/A   Overcast
6:10 AM 37.4 °F 32.8 °F 35.6 °F 93% 29.83 in 7.0 mi South 5.8 mph - N/A   Overcast
6:50 AM 37.4 °F 33.8 °F 35.6 °F 93% 29.84 in 5.0 mi SW 4.6 mph - 0.01 in   Mostly Cloudy
7:10 AM 37.4 °F 30.8 °F 35.6 °F 93% 29.84 in 10.0 mi South 9.2 mph - N/A   Overcast
7:30 AM 37.4 °F 30.3 °F 35.6 °F 93% 29.84 in 10.0 mi South 10.4 mph - N/A   Overcast
7:50 AM 37.4 °F 30.3 °F 35.6 °F 93% 29.85 in 7.0 mi SSW 10.4 mph - N/A   Overcast
8:10 AM 37.4 °F 31.4 °F 35.6 °F 93% 29.86 in 4.0 mi SSW 8.1 mph - N/A   Scattered Clouds
8:30 AM 37.4 °F 29.8 °F 35.6 °F 93% 29.86 in 9.0 mi SSW 11.5 mph - N/A   Mostly Cloudy
8:50 AM 37.4 °F 30.8 °F 35.6 °F 93% 29.87 in 10.0 mi SSW 9.2 mph - N/A   Overcast
9:10 AM 37.4 °F 28.5 °F 35.6 °F 93% 29.88 in 9.0 mi SW 15.0 mph 23.0 mph N/A   Overcast
9:30 AM 37.4 °F 28.9 °F 35.6 °F 93% 29.88 in 5.0 mi SSW 13.8 mph 21.9 mph N/A   Overcast
9:50 AM 37.4 °F 29.3 °F 35.6 °F 93% 29.89 in 10.0 mi SW 12.7 mph 20.7 mph N/A   Overcast
10:10 AM 37.4 °F 28.9 °F 35.6 °F 93% 29.89 in 10.0 mi SSW 13.8 mph 19.6 mph N/A   Overcast
10:30 AM 37.4 °F 30.3 °F 35.6 °F 93% 29.89 in 10.0 mi SW 10.4 mph 17.3 mph N/A   Overcast
10:50 AM 39.2 °F 32.5 °F 35.6 °F 87% 29.89 in 10.0 mi SW 10.4 mph - N/A   Overcast
11:10 AM 39.2 °F 35.0 °F 35.6 °F 87% 29.89 in 10.0 mi WSW 5.8 mph - N/A   Overcast
11:30 AM 39.2 °F 33.6 °F 35.6 °F 87% 29.90 in 10.0 mi SW 8.1 mph - N/A   Overcast
11:50 AM 39.2 °F 32.5 °F 35.6 °F 87% 29.90 in 10.0 mi SW 10.4 mph - N/A   Overcast
12:10 PM 39.2 °F 35.0 °F 33.8 °F 81% 29.90 in 10.0 mi WSW 5.8 mph - N/A   Overcast
12:30 PM 41.0 °F 35.8 °F 33.8 °F 76% 29.90 in 10.0 mi WSW 8.1 mph - N/A   Overcast
12:50 PM 41.0 °F 38.0 °F 35.6 °F 81% 29.90 in 10.0 mi WSW 4.6 mph - N/A   Overcast
1:10 PM 41.0 °F 35.8 °F 35.6 °F 81% 29.90 in 10.0 mi WSW 8.1 mph - N/A   Overcast
1:30 PM 41.0 °F 33.9 °F 33.8 °F 76% 29.91 in 10.0 mi SSW 12.7 mph - N/A   Mostly Cloudy
1:50 PM 44.6 °F 40.2 °F 35.6 °F 71% 29.90 in 10.0 mi South 8.1 mph - N/A   Overcast
2:10 PM 44.6 °F 39.7 °F 33.8 °F 66% 29.90 in 10.0 mi SW 9.2 mph - N/A   Overcast
2:30 PM 44.6 °F 38.1 °F 32.0 °F 61% 29.91 in 10.0 mi SW 13.8 mph 18.4 mph N/A   Mostly Cloudy
2:50 PM 44.6 °F 40.2 °F 32.0 °F 61% 29.92 in 10.0 mi SW 8.1 mph 17.3 mph N/A   Mostly Cloudy
3:10 PM 46.4 °F 41.1 °F 32.0 °F 57% 29.91 in 10.0 mi SW 11.5 mph 18.4 mph N/A   Mostly Cloudy
3:30 PM 44.6 °F 41.4 °F 32.0 °F 61% 29.91 in 10.0 mi WNW 5.8 mph - N/A   Mostly Cloudy
3:50 PM 42.8 °F 39.3 °F 32.0 °F 66% 29.91 in 10.0 mi WNW 5.8 mph - N/A   Mostly Cloudy
4:10 PM 44.6 °F 43.1 °F 32.0 °F 61% 29.91 in 10.0 mi West 3.5 mph - N/A   Overcast
4:30 PM 44.6 °F 42.2 °F 32.0 °F 61% 29.92 in 10.0 mi West 4.6 mph - N/A   Overcast
4:50 PM 44.6 °F 40.2 °F 32.0 °F 61% 29.93 in 9.0 mi West 8.1 mph - N/A   Mostly Cloudy
5:10 PM 39.2 °F 35.9 °F 33.8 °F 81% 29.92 in 8.0 mi NNW 4.6 mph - 0.01 in Rain Light Rain
5:30 PM 41.0 °F 39.0 °F 35.6 °F 81% 29.93 in 10.0 mi ENE 3.5 mph - 0.01 in   Scattered Clouds
5:50 PM 42.8 °F 39.3 °F 33.8 °F 70% 29.93 in 10.0 mi NE 5.8 mph - 0.01 in   Partly Cloudy
6:10 PM 44.6 °F 41.4 °F 35.6 °F 71% 29.93 in 10.0 mi ENE 5.8 mph - N/A   Mostly Cloudy
6:30 PM 44.6 °F 39.2 °F 35.6 °F 71% 29.94 in 10.0 mi WSW 10.4 mph - N/A   Overcast
6:50 PM 42.8 °F 41.1 °F 32.0 °F 66% 29.93 in 10.0 mi SW 3.5 mph - N/A   Overcast
7:10 PM 41.0 °F 38.0 °F 35.6 °F 81% 29.94 in 10.0 mi NE 4.6 mph - N/A   Mostly Cloudy
7:30 PM 41.0 °F 38.0 °F 35.6 °F 81% 29.95 in 10.0 mi East 4.6 mph - N/A   Mostly Cloudy
7:50 PM 41.0 °F 37.1 °F 37.4 °F 87% 29.95 in 10.0 mi East 5.8 mph - N/A   Scattered Clouds
8:10 PM 41.0 °F 38.0 °F 37.4 °F 87% 29.95 in 10.0 mi East 4.6 mph - N/A   Mostly Cloudy
8:30 PM 41.0 °F - 37.4 °F 87% 29.97 in 10.0 mi Calm Calm - N/A   Overcast
8:50 PM 41.0 °F 39.0 °F 35.6 °F 81% 29.95 in 10.0 mi NE 3.5 mph - N/A   Overcast
9:10 PM 39.2 °F 35.9 °F 37.4 °F 93% 29.97 in 10.0 mi SE 4.6 mph - N/A   Overcast
9:30 PM 39.2 °F 37.0 °F 35.6 °F 87% 29.96 in 10.0 mi SE 3.5 mph - N/A   Overcast
9:50 PM 39.2 °F 37.0 °F 35.6 °F 87% 29.96 in 10.0 mi SE 3.5 mph - N/A   Overcast
10:10 PM 39.2 °F 37.0 °F 33.8 °F 81% 29.97 in 10.0 mi SW 3.5 mph - N/A   Overcast
10:30 PM 39.2 °F - 35.6 °F 87% 29.97 in 10.0 mi Calm Calm - N/A   Overcast
10:50 PM 39.2 °F 37.0 °F 35.6 °F 87% 29.97 in 10.0 mi SSW 3.5 mph - N/A   Overcast
11:10 PM 39.2 °F 33.0 °F 33.8 °F 81% 29.98 in 10.0 mi SW 9.2 mph - N/A   Overcast
11:30 PM 39.2 °F 33.0 °F 32.0 °F 75% 29.98 in 10.0 mi SSW 9.2 mph - N/A   Overcast
11:50 PM 37.4 °F 32.8 °F 32.0 °F 81% 29.98 in 10.0 mi South 5.8 mph - N/A   Overcast